| time (UTC) | temp F | wind direction | speed MPH | gust MPH | rain 1hr in | rain 24hr in | rain mn in | humidity % | barometer mb |
| 20260507210529 | 65 | 221 | 4.0 | 10.0 | 0.06 | 3.17 | 2.26 | 81 | 1012.2 |
| 20260507210045 | 66 | 231 | 3.0 | 10.0 | 0.06 | 3.16 | 2.25 | 81 | 1012.1 |
| 20260507205529 | 66 | 220 | 4.0 | 10.0 | 0.06 | 3.16 | 2.25 | 82 | 1012.3 |
| 20260507205028 | 65 | 5 | 3.0 | 10.0 | 0.06 | 3.15 | 2.24 | 81 | 1012.4 |
| 20260507204542 | 65 | 213 | 4.0 | 10.0 | 0.06 | 3.15 | 2.24 | 82 | 1012.3 |
| 20260507204028 | 65 | 9 | 3.0 | 10.0 | 0.07 | 3.15 | 2.24 | 82 | 1012.3 |
| 20260507203530 | 65 | 333 | 3.0 | 9.0 | 0.07 | 3.14 | 2.23 | 83 | 1012.3 |
| 20260507203044 | 64 | 340 | 4.0 | 11.0 | 0.07 | 3.14 | 2.23 | 83 | 1012.4 |
| 20260507202531 | 64 | 22 | 2.0 | 11.0 | 0.07 | 3.13 | 2.22 | 84 | 1012.3 |
| 20260507202031 | 64 | 351 | 2.0 | 8.0 | 0.08 | 3.13 | 2.22 | 84 | 1012.3 |
| 20260507201539 | 64 | 315 | 2.0 | 10.0 | 0.07 | 3.12 | 2.21 | 84 | 1012.4 |
| 20260507201032 | 64 | 304 | 2.0 | 10.0 | 0.07 | 3.11 | 2.20 | 84 | 1012.5 |
| 20260507200532 | 64 | 289 | 3.0 | 11.0 | 0.08 | 3.11 | 2.20 | 84 | 1012.8 |
| 20260507200043 | 65 | 119 | 3.0 | 11.0 | 0.08 | 3.10 | 2.19 | 84 | 1012.6 |
| 20260507195531 | 65 | 351 | 3.0 | 11.0 | 0.08 | 3.10 | 2.19 | 85 | 1012.4 |
| 20260507195031 | 64 | 182 | 3.0 | 10.0 | 0.08 | 3.09 | 2.18 | 85 | 1012.5 |
| 20260507194540 | 64 | 0 | 2.0 | 10.0 | 0.08 | 3.08 | 2.17 | 86 | 1012.5 |
| 20260507194028 | 64 | 323 | 3.0 | 10.0 | 0.09 | 3.08 | 2.17 | 85 | 1012.5 |
| 20260507193528 | 64 | 307 | 1.0 | 10.0 | 0.09 | 3.07 | 2.16 | 86 | 1012.6 |
| 20260507193050 | 64 | 313 | 3.0 | 10.0 | 0.09 | 3.07 | 2.16 | 85 | 1012.7 |
| 20260507192528 | 64 | 285 | 4.0 | 11.0 | 0.09 | 3.06 | 2.15 | 86 | 1012.6 |
| 20260507192032 | 64 | 352 | 3.0 | 11.0 | 0.09 | 3.05 | 2.14 | 86 | 1012.7 |
| 20260507191540 | 64 | 329 | 2.0 | 9.0 | 0.10 | 3.05 | 2.14 | 86 | 1012.7 |
| 20260507191029 | 64 | 267 | 2.0 | 6.0 | 0.10 | 3.04 | 2.13 | 87 | 1012.6 |
| 20260507190532 | 64 | 315 | 2.0 | 10.0 | 0.10 | 3.03 | 2.11 | 87 | 1012.6 |
| 20260507190037 | 63 | 319 | 2.0 | 11.0 | 0.10 | 3.02 | 2.10 | 88 | 1012.7 |
| 20260507185531 | 64 | 269 | 4.0 | 11.0 | 0.10 | 3.02 | 2.10 | 87 | 1012.7 |
| 20260507185029 | 64 | 286 | 2.0 | 8.0 | 0.10 | 3.01 | 2.09 | 88 | 1012.8 |
| 20260507184542 | 63 | 219 | 2.0 | 10.0 | 0.10 | 3.00 | 2.08 | 88 | 1012.7 |
| 20260507184028 | 63 | 294 | 3.0 | 10.0 | 0.10 | 2.99 | 2.08 | 89 | 1012.9 |
| 20260507183528 | 62 | 243 | 2.0 | 8.0 | 0.10 | 2.98 | 2.07 | 90 | 1012.9 |
| 20260507183044 | 62 | 265 | 3.0 | 8.0 | 0.11 | 2.98 | 2.07 | 89 | 1012.9 |
| 20260507182531 | 62 | 280 | 3.0 | 9.0 | 0.11 | 2.97 | 2.06 | 91 | 1012.9 |
| 20260507182029 | 62 | 311 | 2.0 | 10.0 | 0.11 | 2.96 | 2.05 | 90 | 1013.0 |
| 20260507181540 | 62 | 300 | 5.0 | 10.0 | 0.11 | 2.95 | 2.04 | 90 | 1013.2 |
| 20260507181029 | 62 | 335 | 4.0 | 10.0 | 0.11 | 2.94 | 2.03 | 90 | 1013.2 |
| 20260507180531 | 62 | 342 | 2.0 | 6.0 | 0.10 | 2.93 | 2.02 | 91 | 1013.1 |
| 20260507180039 | 62 | 309 | 2.0 | 10.0 | 0.10 | 2.92 | 2.01 | 91 | 1013.0 |
| 20260507175531 | 62 | 323 | 1.0 | 10.0 | 0.10 | 2.91 | 2.00 | 91 | 1013.1 |
| 20260507175028 | 62 | 242 | 4.0 | 12.0 | 0.11 | 2.91 | 2.00 | 90 | 1013.0 |
| 20260507174538 | 62 | 321 | 5.0 | 12.0 | 0.11 | 2.90 | 1.99 | 91 | 1013.1 |
| 20260507174030 | 63 | 336 | 2.0 | 10.0 | 0.11 | 2.89 | 1.98 | 91 | 1013.0 |
| 20260507173528 | 63 | 321 | 2.0 | 10.0 | 0.12 | 2.88 | 1.97 | 91 | 1013.1 |
| 20260507173045 | 63 | 277 | 2.0 | 13.0 | 0.12 | 2.87 | 1.96 | 92 | 1013.0 |
| 20260507172530 | 63 | 315 | 3.0 | 14.0 | 0.12 | 2.86 | 1.95 | 91 | 1012.9 |
| 20260507172032 | 63 | 306 | 5.0 | 14.0 | 0.12 | 2.85 | 1.94 | 91 | 1013.0 |
| 20260507171555 | 63 | 336 | 3.0 | 12.0 | 0.12 | 2.84 | 1.93 | 91 | 1013.0 |
| 20260507171034 | 64 | 257 | 3.0 | 11.0 | 0.12 | 2.83 | 1.92 | 90 | 1012.8 |
| 20260507170533 | 64 | 329 | 3.0 | 11.0 | 0.12 | 2.82 | 1.91 | 90 | 1012.8 |
| 20260507170044 | 64 | 319 | 3.0 | 10.0 | 0.12 | 2.81 | 1.90 | 92 | 1012.7 |
| 20260507165528 | 64 | 276 | 4.0 | 9.0 | 0.12 | 2.80 | 1.89 | 92 | 1012.7 |
| 20260507165030 | 64 | 289 | 3.0 | 9.0 | 0.14 | 2.80 | 1.89 | 91 | 1012.6 |
| 20260507164539 | 64 | 275 | 2.0 | 9.0 | 0.13 | 2.78 | 1.87 | 92 | 1012.5 |
| 20260507164029 | 64 | 195 | 3.0 | 13.0 | 0.13 | 2.77 | 1.86 | 92 | 1012.6 |
| 20260507163528 | 64 | 320 | 1.0 | 13.0 | 0.13 | 2.76 | 1.85 | 92 | 1012.5 |
| 20260507163039 | 64 | 351 | 4.0 | 13.0 | 0.14 | 2.75 | 1.84 | 93 | 1012.7 |
| 20260507162528 | 64 | 309 | 2.0 | 8.0 | 0.14 | 2.74 | 1.83 | 93 | 1012.4 |
| 20260507162032 | 64 | 277 | 2.0 | 9.0 | 0.14 | 2.73 | 1.82 | 93 | 1012.4 |
| 20260507161540 | 64 | 325 | 3.0 | 9.0 | 0.15 | 2.72 | 1.81 | 93 | 1012.6 |
| 20260507161028 | 64 | 309 | 3.0 | 8.0 | 0.15 | 2.71 | 1.80 | 93 | 1012.6 |
| 20260507160528 | 64 | 348 | 3.0 | 11.0 | 0.16 | 2.70 | 1.79 | 94 | 1012.4 |
| 20260507160047 | 64 | 326 | 2.0 | 12.0 | 0.16 | 2.69 | 1.78 | 94 | 1012.4 |
| 20260507155529 | 64 | 352 | 3.0 | 12.0 | 0.15 | 2.67 | 1.76 | 94 | 1012.3 |
| 20260507155031 | 64 | 324 | 3.0 | 11.0 | 0.16 | 2.66 | 1.75 | 94 | 1012.3 |
| 20260507154542 | 64 | 299 | 5.0 | 11.0 | 0.16 | 2.65 | 1.74 | 94 | 1012.2 |
| 20260507154031 | 64 | 5 | 1.0 | 4.0 | 0.16 | 2.64 | 1.73 | 95 | 1012.1 |
| 20260507153530 | 64 | 192 | 1.0 | 5.0 | 0.16 | 2.62 | 1.71 | 95 | 1012.0 |
| 20260507153038 | 64 | 307 | 1.0 | 6.0 | 0.16 | 2.61 | 1.70 | 95 | 1012.0 |
| 20260507152528 | 64 | 314 | 2.0 | 9.0 | 0.17 | 2.60 | 1.69 | 95 | 1011.9 |
| 20260507152028 | 64 | 323 | 2.0 | 9.0 | 0.16 | 2.58 | 1.67 | 95 | 1011.9 |
| 20260507151544 | 64 | 232 | 1.0 | 6.0 | 0.16 | 2.57 | 1.66 | 95 | 1012.0 |
| 20260507151029 | 64 | 317 | 2.0 | 9.0 | 0.17 | 2.56 | 1.65 | 95 | 1011.8 |
| 20260507150531 | 64 | 296 | 2.0 | 9.0 | 0.16 | 2.54 | 1.63 | 95 | 1011.9 |
| 20260507150041 | 64 | 303 | 2.0 | 8.0 | 0.17 | 2.53 | 1.62 | 95 | 1011.7 |
| 20260507145534 | 64 | 319 | 2.0 | 8.0 | 0.17 | 2.52 | 1.61 | 95 | 1011.8 |
| 20260507145028 | 64 | 276 | 2.0 | 8.0 | 0.17 | 2.50 | 1.59 | 95 | 1012.0 |
| 20260507144604 | 64 | 319 | 2.0 | 7.0 | 0.17 | 2.49 | 1.58 | 95 | 1011.6 |
| 20260507144033 | 64 | 13 | 2.0 | 7.0 | 0.16 | 2.47 | 1.56 | 96 | 1011.6 |
| 20260507143528 | 64 | 0 | 1.0 | 7.0 | 0.16 | 2.46 | 1.55 | 96 | 1011.8 |
| 20260507143040 | 64 | 306 | 1.0 | 7.0 | 0.17 | 2.45 | 1.54 | 96 | 1011.8 |
| 20260507142528 | 64 | 301 | 2.0 | 6.0 | 0.16 | 2.43 | 1.52 | 96 | 1011.8 |
| 20260507142031 | 64 | 317 | 2.0 | 8.0 | 0.16 | 2.42 | 1.51 | 96 | 1011.8 |
| 20260507141542 | 63 | 329 | 3.0 | 8.0 | 0.15 | 2.40 | 1.49 | 96 | 1011.8 |
| 20260507141028 | 63 | 331 | 1.0 | 7.0 | 0.15 | 2.39 | 1.48 | 96 | 1011.8 |
| 20260507140534 | 63 | 263 | 1.0 | 7.0 | 0.14 | 2.36 | 1.46 | 96 | 1012.0 |
| 20260507140039 | 64 | 350 | 2.0 | 5.0 | 0.15 | 2.35 | 1.45 | 96 | 1012.0 |
| 20260507135528 | 64 | 334 | 1.0 | 4.0 | 0.15 | 2.34 | 1.44 | 96 | 1012.0 |
| 20260507135028 | 64 | 39 | 2.0 | 4.0 | 0.14 | 2.33 | 1.42 | 96 | 1012.0 |
| 20260507134550 | 63 | 321 | 1.0 | 5.0 | 0.14 | 2.32 | 1.41 | 96 | 1011.7 |
| 20260507134031 | 63 | 318 | 0.0 | 5.0 | 0.14 | 2.31 | 1.40 | 96 | 1012.0 |
| 20260507133533 | 63 | 317 | 1.0 | 5.0 | 0.14 | 2.30 | 1.39 | 96 | 1011.9 |
| 20260507133041 | 63 | 227 | 0.0 | 4.0 | 0.14 | 2.28 | 1.37 | 96 | 1012.1 |
| 20260507132530 | 63 | 227 | 1.0 | 4.0 | 0.14 | 2.27 | 1.36 | 96 | 1011.9 |
| 20260507132030 | 63 | 227 | 1.0 | 4.0 | 0.14 | 2.26 | 1.35 | 96 | 1011.9 |
| 20260507131543 | 63 | 229 | 2.0 | 4.0 | 0.14 | 2.25 | 1.34 | 96 | 1011.9 |
| 20260507131028 | 63 | 171 | 0.0 | 2.0 | 0.14 | 2.24 | 1.33 | 96 | 1011.1 |
| 20260507130534 | 63 | 0 | 0.0 | 2.0 | 0.14 | 2.22 | 1.31 | 96 | 1011.2 |
| 20260507130037 | 63 | 0 | 0.0 | 1.0 | 0.14 | 2.21 | 1.30 | 96 | 1010.7 |
| 20260507125531 | 63 | 0 | 0.0 | 3.0 | 0.14 | 2.20 | 1.29 | 96 | 1010.8 |
| 20260507125030 | 63 | 0 | 0.0 | 3.0 | 0.14 | 2.19 | 1.28 | 96 | 1011.1 |
| 20260507124542 | 63 | 101 | 2.0 | 3.0 | 0.14 | 2.18 | 1.27 | 96 | 1010.7 |
| 20260507124033 | 63 | 0 | 0.0 | 2.0 | 0.14 | 2.17 | 1.26 | 96 | 1011.2 |
| 20260507123528 | 63 | 103 | 0.0 | 2.0 | 0.13 | 2.15 | 1.24 | 96 | 1011.1 |
| 20260507123044 | 63 | 103 | 0.0 | 6.0 | 0.13 | 2.14 | 1.23 | 96 | 1011.0 |
| 20260507122530 | 63 | 103 | 0.0 | 6.0 | 0.13 | 2.13 | 1.22 | 96 | 1010.8 |
| 20260507122030 | 63 | 64 | 1.0 | 4.0 | 0.13 | 2.11 | 1.21 | 96 | 1010.6 |
| 20260507121540 | 63 | 0 | 1.0 | 5.0 | 0.13 | 2.10 | 1.20 | 96 | 1011.2 |
| 20260507121031 | 63 | 269 | 1.0 | 8.0 | 0.13 | 2.09 | 1.19 | 96 | 1012.0 |
| 20260507120532 | 63 | 311 | 3.0 | 8.0 | 0.12 | 2.08 | 1.16 | 96 | 1011.7 |
| 20260507120039 | 63 | 323 | 2.0 | 8.0 | 0.13 | 2.07 | 1.16 | 96 | 1011.0 |
| 20260507115530 | 63 | 325 | 2.0 | 11.0 | 0.13 | 2.06 | 1.15 | 96 | 1011.0 |
| 20260507115028 | 63 | 325 | 4.0 | 11.0 | 0.13 | 2.05 | 1.14 | 96 | 1011.2 |
| 20260507114536 | 63 | 333 | 3.0 | 6.0 | 0.13 | 2.04 | 1.13 | 96 | 1011.3 |
| 20260507114030 | 63 | 335 | 2.0 | 6.0 | 0.13 | 2.03 | 1.12 | 96 | 1010.8 |
| 20260507113527 | 63 | 45 | 2.0 | 7.0 | 0.13 | 2.02 | 1.11 | 96 | 1010.6 |
| 20260507113044 | 63 | 5 | 1.0 | 7.0 | 0.13 | 2.01 | 1.10 | 96 | 1010.5 |
| 20260507112530 | 63 | 57 | 3.0 | 8.0 | 0.13 | 2.00 | 1.09 | 95 | 1009.9 |
| 20260507112031 | 63 | 32 | 2.0 | 8.0 | 0.13 | 1.99 | 1.08 | 95 | 1009.9 |
| 20260507111544 | 63 | 42 | 1.0 | 9.0 | 0.13 | 1.98 | 1.07 | 95 | 1009.9 |
| 20260507111033 | 63 | 14 | 2.0 | 9.0 | 0.11 | 1.96 | 1.04 | 95 | 1009.9 |
| 20260507110531 | 63 | 41 | 2.0 | 9.0 | 0.11 | 1.95 | 1.04 | 95 | 1009.8 |
| 20260507110041 | 63 | 59 | 3.0 | 7.0 | 0.11 | 1.94 | 1.03 | 95 | 1009.7 |
| 20260507105529 | 63 | 333 | 2.0 | 10.0 | 0.11 | 1.93 | 1.02 | 95 | 1009.9 |
| 20260507105031 | 63 | 352 | 4.0 | 12.0 | 0.11 | 1.92 | 1.01 | 95 | 1009.9 |
| 20260507104540 | 63 | 328 | 6.0 | 12.0 | 0.11 | 1.91 | 1.00 | 95 | 1010.0 |
| 20260507104027 | 63 | 329 | 4.0 | 9.0 | 0.11 | 1.90 | 0.99 | 95 | 1009.8 |
| 20260507103532 | 63 | 337 | 1.0 | 5.0 | 0.11 | 1.89 | 0.98 | 95 | 1009.9 |
| 20260507103041 | 63 | 0 | 0.0 | 0.0 | 0.11 | 1.88 | 0.97 | 95 | 1009.7 |
| 20260507102530 | 63 | 0 | 0.0 | 0.0 | 0.11 | 1.87 | 0.96 | 95 | 1009.6 |
| 20260507102029 | 63 | 0 | 0.0 | 0.0 | 0.11 | 1.86 | 0.95 | 95 | 1009.6 |
| 20260507101548 | 63 | 0 | 0.0 | 0.0 | 0.11 | 1.85 | 0.94 | 95 | 1009.4 |
| 20260507101031 | 63 | 0 | 0.0 | 0.0 | 0.11 | 1.84 | 0.93 | 95 | 1009.4 |
| 20260507100530 | 63 | 0 | 0.0 | 0.0 | 0.12 | 1.84 | 0.93 | 95 | 1009.5 |
| 20260507100045 | 63 | 0 | 0.0 | 0.0 | 0.12 | 1.83 | 0.92 | 95 | 1009.3 |
| 20260507095530 | 63 | 0 | 0.0 | 0.0 | 0.12 | 1.82 | 0.91 | 95 | 1009.5 |
| 20260507095030 | 63 | 0 | 0.0 | 1.0 | 0.12 | 1.81 | 0.90 | 95 | 1009.4 |
| 20260507094546 | 63 | 0 | 0.0 | 3.0 | 0.13 | 1.80 | 0.89 | 95 | 1009.7 |
| 20260507094030 | 63 | 0 | 0.0 | 3.0 | 0.13 | 1.79 | 0.88 | 95 | 1009.6 |
| 20260507093530 | 63 | 0 | 0.0 | 0.0 | 0.13 | 1.78 | 0.87 | 95 | 1009.8 |
| 20260507093044 | 63 | 0 | 0.0 | 0.0 | 0.13 | 1.77 | 0.86 | 95 | 1009.9 |
| 20260507092531 | 63 | 0 | 0.0 | 0.0 | 0.13 | 1.76 | 0.85 | 95 | 1009.8 |
| 20260507092030 | 63 | 0 | 0.0 | 0.0 | 0.13 | 1.75 | 0.84 | 95 | 1010.0 |
| 20260507091545 | 63 | 0 | 0.0 | 0.0 | 0.13 | 1.74 | 0.83 | 95 | 1010.0 |
| 20260507091032 | 63 | 0 | 0.0 | 1.0 | 0.13 | 1.73 | 0.82 | 95 | 1010.1 |
| 20260507090534 | 63 | 0 | 0.0 | 1.0 | 0.14 | 1.72 | 0.81 | 95 | 1010.0 |
| 20260507090043 | 63 | 0 | 0.0 | 2.0 | 0.14 | 1.71 | 0.80 | 95 | 1010.2 |
| 20260507085533 | 63 | 0 | 0.0 | 2.0 | 0.14 | 1.70 | 0.79 | 95 | 1009.9 |
| 20260507085031 | 63 | 97 | 1.0 | 3.0 | 0.13 | 1.68 | 0.77 | 95 | 1009.7 |
| 20260507084545 | 63 | 97 | 1.0 | 3.0 | 0.14 | 1.67 | 0.76 | 95 | 1010.1 |
| 20260507084032 | 63 | 97 | 0.0 | 3.0 | 0.14 | 1.66 | 0.75 | 95 | 1010.5 |
| 20260507083532 | 63 | 0 | 0.0 | 1.0 | 0.14 | 1.65 | 0.74 | 95 | 1010.7 |
| 20260507083040 | 63 | 97 | 0.0 | 1.0 | 0.14 | 1.64 | 0.73 | 95 | 1010.8 |
| 20260507082532 | 63 | 0 | 0.0 | 0.0 | 0.14 | 1.63 | 0.72 | 95 | 1010.8 |
| 20260507082032 | 63 | 0 | 0.0 | 3.0 | 0.15 | 1.62 | 0.71 | 95 | 1010.8 |
| 20260507081541 | 63 | 0 | 0.0 | 3.0 | 0.15 | 1.61 | 0.70 | 95 | 1010.6 |
| 20260507081032 | 63 | 97 | 0.0 | 3.0 | 0.14 | 1.59 | 0.68 | 95 | 1010.4 |
| 20260507080531 | 63 | 0 | 0.0 | 2.0 | 0.14 | 1.58 | 0.67 | 95 | 1010.9 |
| 20260507080043 | 63 | 97 | 0.0 | 1.0 | 0.15 | 1.57 | 0.66 | 95 | 1010.7 |
| 20260507075532 | 63 | 0 | 0.0 | 1.0 | 0.15 | 1.56 | 0.65 | 95 | 1011.0 |
| 20260507075036 | 63 | 0 | 0.0 | 3.0 | 0.15 | 1.55 | 0.64 | 95 | 1010.9 |
| 20260507074543 | 63 | 0 | 0.0 | 4.0 | 0.14 | 1.53 | 0.62 | 95 | 1010.9 |
| 20260507074031 | 63 | 97 | 1.0 | 4.0 | 0.15 | 1.52 | 0.61 | 95 | 1010.8 |
| 20260507073532 | 63 | 73 | 0.0 | 3.0 | 0.15 | 1.51 | 0.60 | 95 | 1010.7 |
| 20260507073043 | 63 | 0 | 0.0 | 3.0 | 0.15 | 1.50 | 0.58 | 95 | 1011.0 |
| 20260507072535 | 63 | 273 | 1.0 | 4.0 | 0.15 | 1.48 | 0.57 | 95 | 1011.2 |
| 20260507072030 | 63 | 274 | 1.0 | 4.0 | 0.15 | 1.47 | 0.56 | 95 | 1011.5 |
| 20260507071542 | 63 | 40 | 0.0 | 5.0 | 0.16 | 1.46 | 0.55 | 95 | 1011.6 |
| 20260507071031 | 63 | 54 | 2.0 | 5.0 | 0.16 | 1.45 | 0.54 | 95 | 1011.5 |
| 20260507070533 | 63 | 61 | 2.0 | 5.0 | 0.16 | 1.44 | 0.52 | 95 | 1011.5 |
| 20260507070044 | 63 | 196 | 0.0 | 3.0 | 0.16 | 1.42 | 0.51 | 95 | 1011.6 |
| 20260507065531 | 63 | 196 | 0.0 | 3.0 | 0.16 | 1.41 | 0.50 | 95 | 1011.6 |
| 20260507065030 | 63 | 196 | 2.0 | 3.0 | 0.17 | 1.40 | 0.49 | 95 | 1011.3 |
| 20260507064541 | 63 | 0 | 0.0 | 3.0 | 0.17 | 1.39 | 0.48 | 95 | 1011.6 |
| 20260507064032 | 63 | 199 | 1.0 | 4.0 | 0.17 | 1.37 | 0.46 | 95 | 1011.8 |
| 20260507063531 | 63 | 0 | 0.0 | 4.0 | 0.17 | 1.36 | 0.45 | 95 | 1011.6 |
| 20260507063046 | 63 | 163 | 1.0 | 4.0 | 0.18 | 1.35 | 0.44 | 95 | 1011.6 |
| 20260507062530 | 63 | 0 | 1.0 | 5.0 | 0.17 | 1.33 | 0.42 | 95 | 1011.4 |
| 20260507062032 | 63 | 0 | 1.0 | 5.0 | 0.18 | 1.32 | 0.41 | 95 | 1011.6 |
| 20260507061546 | 63 | 46 | 2.0 | 5.0 | 0.17 | 1.30 | 0.39 | 94 | 1011.8 |
| 20260507061029 | 63 | 91 | 0.0 | 2.0 | 0.18 | 1.29 | 0.38 | 94 | 1011.9 |
| 20260507060531 | 63 | 0 | 0.0 | 3.0 | 0.17 | 1.27 | 0.36 | 95 | 1012.1 |
| 20260507060051 | 63 | 92 | 0.0 | 3.0 | 0.18 | 1.26 | 0.35 | 94 | 1012.1 |
| 20260507055534 | 63 | 92 | 1.0 | 3.0 | 0.19 | 1.25 | 0.34 | 95 | 1012.3 |
| 20260507055029 | 63 | 92 | 0.0 | 2.0 | 0.18 | 1.23 | 0.32 | 95 | 1012.4 |
| 20260507054547 | 63 | 92 | 0.0 | 3.0 | 0.19 | 1.22 | 0.31 | 94 | 1012.3 |
| 20260507054032 | 63 | 0 | 0.0 | 4.0 | 0.18 | 1.20 | 0.29 | 94 | 1012.4 |
| 20260507053530 | 63 | 0 | 0.0 | 6.0 | 0.19 | 1.19 | 0.28 | 94 | 1012.4 |
| 20260507053047 | 63 | 123 | 2.0 | 6.0 | 0.18 | 1.16 | 0.26 | 94 | 1012.1 |
| 20260507052530 | 63 | 128 | 1.0 | 4.0 | 0.19 | 1.16 | 0.25 | 94 | 1012.3 |
| 20260507052031 | 63 | 0 | 1.0 | 3.0 | 0.18 | 1.14 | 0.23 | 94 | 1012.7 |
| 20260507051549 | 63 | 0 | 0.0 | 3.0 | 0.17 | 1.12 | 0.21 | 94 | 1012.8 |
| 20260507051034 | 63 | 122 | 1.0 | 2.0 | 0.18 | 1.11 | 0.20 | 94 | 1012.7 |
| 20260507050531 | 63 | 122 | 0.0 | 2.0 | 0.17 | 1.09 | 0.18 | 94 | 1012.9 |
| 20260507050051 | 63 | 0 | 0.0 | 1.0 | 0.17 | 1.08 | 0.17 | 94 | 1013.1 |
| 20260507045530 | 63 | 122 | 0.0 | 3.0 | 0.16 | 1.05 | 0.15 | 94 | 1013.1 |
| 20260507045030 | 63 | 0 | 0.0 | 4.0 | 0.16 | 1.04 | 0.14 | 94 | 1013.0 |
| 20260507044552 | 63 | 130 | 2.0 | 4.0 | 0.15 | 1.03 | 0.12 | 94 | 1013.0 |
| 20260507044030 | 63 | 0 | 0.0 | 2.0 | 0.16 | 1.02 | 0.11 | 94 | 1013.5 |
| 20260507043530 | 63 | 0 | 0.0 | 3.0 | 0.15 | 1.00 | 0.09 | 94 | 1013.5 |
| 20260507043041 | 63 | 0 | 0.0 | 5.0 | 0.15 | 0.99 | 0.08 | 94 | 1013.3 |
| 20260507042530 | 63 | 129 | 2.0 | 5.0 | 0.14 | 0.97 | 0.06 | 94 | 1013.1 |
| 20260507042029 | 63 | 0 | 0.0 | 3.0 | 0.14 | 0.96 | 0.05 | 94 | 1013.0 |
| 20260507041541 | 63 | 127 | 0.0 | 4.0 | 0.14 | 0.95 | 0.04 | 94 | 1013.1 |
| 20260507041030 | 63 | 0 | 1.0 | 5.0 | 0.14 | 0.93 | 0.02 | 94 | 1013.1 |
| 20260507040531 | 63 | 0 | 2.0 | 7.0 | 0.14 | 0.92 | 0.01 | 94 | 1013.1 |
| 20260507040043 | 63 | 190 | 2.0 | 8.0 | 0.14 | 0.91 | 0.00 | 93 | 1013.2 |
| 20260507035527 | 63 | 124 | 2.0 | 8.0 | 0.14 | 0.90 | 0.90 | 94 | 1013.0 |
| 20260507035030 | 63 | 140 | 2.0 | 8.0 | 0.15 | 0.89 | 0.89 | 93 | 1013.3 |
| 20260507034544 | 63 | 148 | 3.0 | 8.0 | 0.14 | 0.87 | 0.87 | 93 | 1012.9 |
| 20260507034031 | 64 | 132 | 3.0 | 6.0 | 0.14 | 0.86 | 0.86 | 93 | 1012.8 |
| 20260507033530 | 64 | 123 | 1.0 | 6.0 | 0.14 | 0.85 | 0.85 | 94 | 1012.7 |
| 20260507033044 | 64 | 120 | 1.0 | 6.0 | 0.14 | 0.84 | 0.84 | 93 | 1012.3 |
| 20260507032529 | 64 | 103 | 2.0 | 6.0 | 0.15 | 0.83 | 0.83 | 93 | 1012.5 |
| 20260507032033 | 64 | 96 | 1.0 | 4.0 | 0.15 | 0.82 | 0.82 | 93 | 1012.7 |
| 20260507031541 | 64 | 96 | 2.0 | 4.0 | 0.14 | 0.80 | 0.80 | 93 | 1012.9 |
| 20260507031030 | 64 | 78 | 1.0 | 3.0 | 0.14 | 0.79 | 0.79 | 93 | 1013.4 |
| 20260507030538 | 64 | 352 | 1.0 | 3.0 | 0.13 | 0.78 | 0.78 | 93 | 1013.4 |
| 20260507030042 | 64 | 0 | 0.0 | 3.0 | 0.13 | 0.77 | 0.77 | 93 | 1013.8 |
| 20260507025530 | 64 | 329 | 0.0 | 3.0 | 0.12 | 0.75 | 0.75 | 93 | 1013.7 |
| 20260507025030 | 64 | 327 | 0.0 | 3.0 | 0.12 | 0.74 | 0.74 | 93 | 1013.7 |
| 20260507024543 | 64 | 321 | 1.0 | 4.0 | 0.12 | 0.73 | 0.73 | 93 | 1013.7 |
| 20260507024036 | 64 | 322 | 2.0 | 5.0 | 0.12 | 0.72 | 0.72 | 93 | 1013.9 |
| 20260507023532 | 64 | 9 | 2.0 | 5.0 | 0.12 | 0.71 | 0.71 | 92 | 1013.8 |
| 20260507023045 | 64 | 37 | 0.0 | 5.0 | 0.11 | 0.69 | 0.69 | 92 | 1013.6 |
| 20260507022534 | 64 | 24 | 2.0 | 4.0 | 0.11 | 0.68 | 0.68 | 92 | 1013.6 |
| 20260507022032 | 64 | 348 | 1.0 | 4.0 | 0.11 | 0.67 | 0.67 | 92 | 1013.7 |
| 20260507021540 | 65 | 259 | 0.0 | 8.0 | 0.11 | 0.66 | 0.66 | 92 | 1013.4 |
| 20260507021032 | 65 | 0 | 0.0 | 8.0 | 0.11 | 0.65 | 0.65 | 92 | 1012.9 |
| 20260507020531 | 65 | 337 | 2.0 | 10.0 | 0.12 | 0.64 | 0.64 | 92 | 1012.8 |
| 20260507020047 | 65 | 26 | 4.0 | 10.0 | 0.13 | 0.64 | 0.64 | 92 | 1012.7 |
| 20260507015534 | 65 | 27 | 4.0 | 8.0 | 0.13 | 0.63 | 0.63 | 92 | 1012.9 |
| 20260507015032 | 66 | 30 | 2.0 | 9.0 | 0.13 | 0.62 | 0.62 | 91 | 1013.0 |
| 20260507014538 | 66 | 34 | 2.0 | 9.0 | 0.14 | 0.61 | 0.61 | 91 | 1012.9 |
| 20260507014032 | 66 | 36 | 5.0 | 15.0 | 0.14 | 0.60 | 0.60 | 91 | 1012.9 |
| 20260507013536 | 67 | 335 | 2.0 | 15.0 | 0.14 | 0.58 | 0.58 | 92 | 1012.9 |
| 20260507013057 | 67 | 43 | 4.0 | 14.0 | 0.15 | 0.58 | 0.58 | 91 | 1012.3 |
| 20260507012533 | 68 | 31 | 5.0 | 15.0 | 0.15 | 0.57 | 0.57 | 90 | 1013.0 |
| 20260507012032 | 69 | 311 | 8.0 | 15.0 | 0.16 | 0.56 | 0.56 | 90 | 1013.4 |
| 20260507011543 | 70 | 330 | 4.0 | 8.0 | 0.16 | 0.55 | 0.55 | 92 | 1013.3 |
| 20260507011031 | 70 | 0 | 0.0 | 0.0 | 0.16 | 0.52 | 0.52 | 92 | 1013.0 |
| 20260507010533 | 70 | 0 | 0.0 | 0.0 | 0.17 | 0.52 | 0.52 | 92 | 1012.8 |
| 20260507010045 | 70 | 0 | 0.0 | 0.0 | 0.18 | 0.51 | 0.51 | 92 | 1012.6 |
| 20260507005533 | 70 | 0 | 0.0 | 0.0 | 0.19 | 0.50 | 0.50 | 92 | 1012.8 |
| 20260507005030 | 70 | 0 | 0.0 | 0.0 | 0.20 | 0.49 | 0.49 | 92 | 1012.7 |
| 20260507004549 | 70 | 0 | 0.0 | 0.0 | 0.20 | 0.47 | 0.47 | 91 | 1012.6 |
| 20260507004031 | 70 | 0 | 0.0 | 0.0 | 0.21 | 0.46 | 0.46 | 91 | 1012.5 |
| 20260507003531 | 70 | 0 | 0.0 | 0.0 | 0.23 | 0.45 | 0.45 | 91 | 1012.3 |
| 20260507003038 | 70 | 0 | 0.0 | 0.0 | 0.23 | 0.43 | 0.43 | 91 | 1012.3 |
| 20260507002531 | 70 | 0 | 0.0 | 0.0 | 0.25 | 0.42 | 0.42 | 91 | 1012.2 |
| 20260507002029 | 70 | 0 | 0.0 | 0.0 | 0.26 | 0.40 | 0.40 | 91 | 1012.2 |
| 20260507001544 | 70 | 0 | 0.0 | 0.0 | 0.27 | 0.38 | 0.38 | 91 | 1012.2 |
| 20260507001029 | 70 | 0 | 0.0 | 0.0 | 0.29 | 0.37 | 0.37 | 90 | 1012.8 |
| 20260507000530 | 70 | 0 | 0.0 | 0.0 | 0.31 | 0.35 | 0.35 | 90 | 1012.5 |
| 20260507000051 | 70 | 0 | 0.0 | 2.0 | 0.31 | 0.33 | 0.33 | 90 | 1012.4 |
| 20260506235531 | 70 | 0 | 0.0 | 3.0 | 0.31 | 0.31 | 0.31 | 90 | 1012.4 |
| 20260506235030 | 70 | 220 | 0.0 | 6.0 | 0.29 | 0.29 | 0.29 | 90 | 1012.5 |
| 20260506234542 | 70 | 220 | 2.0 | 7.0 | 0.27 | 0.27 | 0.27 | 89 | 1012.6 |
| 20260506234030 | 70 | 200 | 3.0 | 8.0 | 0.24 | 0.24 | 0.24 | 89 | 1012.3 |
| 20260506233529 | 70 | 220 | 4.0 | 8.0 | 0.22 | 0.22 | 0.22 | 89 | 1012.4 |
| 20260506233039 | 70 | 200 | 3.0 | 8.0 | 0.19 | 0.19 | 0.19 | 88 | 1012.3 |
| 20260506232528 | 70 | 208 | 2.0 | 7.0 | 0.16 | 0.16 | 0.16 | 87 | 1012.3 |
| 20260506232028 | 70 | 234 | 4.0 | 16.0 | 0.14 | 0.14 | 0.14 | 86 | 1012.6 |
| 20260506231540 | 71 | 269 | 3.0 | 21.0 | 0.10 | 0.10 | 0.10 | 85 | 1012.5 |
| 20260506231027 | 72 | 254 | 9.0 | 21.0 | 0.07 | 0.07 | 0.07 | 83 | 1012.5 |
| 20260506230527 | 75 | 204 | 7.0 | 21.0 | 0.04 | 0.04 | 0.04 | 81 | 1013.3 |
| 20260506230039 | 76 | 218 | 3.0 | 9.0 | 0.02 | 0.02 | 0.02 | 77 | 1012.3 |
| 20260506225529 | 76 | 213 | 3.0 | 9.0 | 0.00 | 0.00 | 0.00 | 75 | 1011.6 |
| 20260506225029 | 77 | 224 | 3.0 | 6.0 | 0.00 | 0.00 | 0.00 | 73 | 1011.6 |
| 20260506224556 | 77 | 207 | 3.0 | 6.0 | 0.00 | 0.00 | 0.00 | 73 | 1011.5 |
| 20260506224028 | 77 | 223 | 2.0 | 9.0 | 0.00 | 0.00 | 0.00 | 73 | 1011.5 |
| 20260506223529 | 77 | 0 | 2.0 | 9.0 | 0.00 | 0.00 | 0.00 | 72 | 1011.5 |
| 20260506223041 | 77 | 207 | 2.0 | 7.0 | 0.00 | 0.00 | 0.00 | 72 | 1011.9 |
| 20260506222533 | 77 | 211 | 3.0 | 7.0 | 0.00 | 0.00 | 0.00 | 72 | 1012.1 |
| 20260506222029 | 77 | 221 | 1.0 | 9.0 | 0.00 | 0.00 | 0.00 | 71 | 1012.2 |
| 20260506221538 | 77 | 225 | 3.0 | 9.0 | 0.00 | 0.00 | 0.00 | 71 | 1012.3 |
| 20260506221029 | 77 | 225 | 2.0 | 9.0 | 0.00 | 0.00 | 0.00 | 70 | 1012.1 |
| 20260506220529 | 77 | 238 | 3.0 | 9.0 | 0.00 | 0.00 | 0.00 | 70 | 1012.0 |
| 20260506220044 | 78 | 194 | 4.0 | 9.0 | 0.00 | 0.00 | 0.00 | 70 | 1012.1 |
| 20260506215529 | 78 | 233 | 3.0 | 10.0 | 0.00 | 0.00 | 0.00 | 69 | 1012.1 |
| 20260506215029 | 78 | 207 | 5.0 | 10.0 | 0.00 | 0.00 | 0.00 | 69 | 1012.1 |
| 20260506214542 | 78 | 219 | 4.0 | 15.0 | 0.00 | 0.00 | 0.00 | 69 | 1012.1 |
| 20260506214028 | 78 | 232 | 5.0 | 15.0 | 0.00 | 0.00 | 0.00 | 68 | 1012.0 |
| 20260506213534 | 78 | 223 | 8.0 | 15.0 | 0.00 | 0.00 | 0.00 | 68 | 1012.0 |
| 20260506213044 | 78 | 192 | 7.0 | 16.0 | 0.00 | 0.00 | 0.00 | 68 | 1012.0 |
| 20260506212534 | 78 | 209 | 6.0 | 16.0 | 0.00 | 0.00 | 0.00 | 68 | 1011.9 |
| 20260506212033 | 79 | 218 | 6.0 | 13.0 | 0.00 | 0.00 | 0.00 | 68 | 1011.9 |
| 20260506211540 | 79 | 210 | 3.0 | 14.0 | 0.00 | 0.00 | 0.00 | 68 | 1011.8 |
| 20260506211032 | 79 | 224 | 5.0 | 14.0 | 0.00 | 0.00 | 0.00 | 68 | 1011.7 |